Location: Caltech
(34.1382°N, 118.1253°W)
Time: 06:40:41
(UTC-07:00)

OAO 2 Rocket - Visible Passes

Search period start: 30 October 2014 00:00
Search period end: 08 November 2014 23:00
Orbit: 678 x 748 km, 35.0° (Epoch: 29 October)

Date Brightness Start Highest point End Pass type
(mag) Time Alt. Az. Time Alt. Az. Time Alt. Az.
30 Oct 3.3 05:03:45 81° ENE 05:03:45 81° ENE 05:08:47 10° E visible
31 Oct 5.7 04:09:52 21° E 04:09:52 21° E 04:11:31 10° E visible
31 Oct 3.5 05:48:53 32° W 05:51:13 66° SSW 05:56:24 10° ESE visible
01 Nov 3.8 04:55:01 59° ESE 04:55:01 59° ESE 04:59:16 10° ESE visible
01 Nov 4.4 06:34:04 10° W 06:38:40 33° SSW 06:43:20 10° SE visible
02 Nov 6.1 03:01:12 15° E 03:01:12 15° E 03:02:03 10° E visible
02 Nov 3.9 04:40:13 36° WSW 04:41:37 45° SSW 04:46:34 10° SE visible
03 Nov 4.6 03:46:26 36° SE 03:46:26 36° SE 03:49:36 10° ESE visible
03 Nov 5.0 05:25:27 11° WSW 05:28:55 20° SSW 05:32:39 10° SSE visible
04 Nov 4.4 04:31:43 29° SSW 04:31:55 29° SSW 04:36:20 10° SSE visible
05 Nov 5.4 03:38:01 19° SE 03:38:01 19° SE 03:39:40 10° SE visible
05 Nov 5.5 05:17:49 10° SW 05:19:05 11° SW 05:20:21 10° SSW visible
06 Nov 5.3 04:23:23 16° SSW 04:23:23 16° SSW 04:25:24 10° S visible
08 Nov 5.5 18:31:12 10° SSE 18:32:02 11° SSE 18:32:02 11° SSE visible
